• In Czech Republic
  • List of Countries
  • For 7 days
  • Water Temperature
  • Satellite Maps
  • Weather Map
  • Weather Widgets
  • user-avatar
    Login

    Hourly Weather Pabna

    Today, 25 February, Sunday

    Time Temperature Precipitation Wind Pressure Humidity
    00:00 +27°C° 0 mm 2 mps 758 mmHg 44%
    01:00 +26°C° 0 mm 2 mps 757 mmHg 46%
    02:00 +26°C° 0 mm 2 mps 757 mmHg 47%
    03:00 +26°C° 0 mm 2 mps 757 mmHg 49%
    04:00 +25°C° 0 mm 2 mps 757 mmHg 50%
    05:00 +25°C° 0 mm 2 mps 757 mmHg 51%
    06:00 +24°C° 0 mm 1 mps 757 mmHg 55%
    07:00 +26°C° 0 mm 2 mps 758 mmHg 50%
    08:00 +28°C° 0 mm 2 mps 758 mmHg 46%
    09:00 +30°C° 0 mm 2 mps 758 mmHg 41%
    10:00 +32°C° 0 mm 2 mps 758 mmHg 36%
    11:00 +35°C° 0 mm 2 mps 758 mmHg 30%
    12:00 +37°C° 0 mm 1 mps 757 mmHg 23%
    13:00 +37°C° 0 mm 1 mps 757 mmHg 22%
    14:00 +37°C° 0 mm 1 mps 756 mmHg 21%
    15:00 +39°C° 0 mm 2 mps 755 mmHg 19%
    16:00 +37°C° 0 mm 2 mps 755 mmHg 21%
    17:00 +36°C° 0 mm 2 mps 755 mmHg 23%
    18:00 +33°C° 0 mm 1 mps 754 mmHg 26%
    19:00 +32°C° 0 mm 1 mps 755 mmHg 28%
    20:00 +31°C° 0 mm 1 mps 755 mmHg 29%
    21:00 +30°C° 0 mm 1 mps 755 mmHg 30%
    22:00 +30°C° 0 mm 1 mps 755 mmHg 32%
    23:00 +29°C° 0 mm 1 mps 755 mmHg 33%

    Tomorrow, 26 February, Monday

    Time Temperature Precipitation Wind Pressure Humidity
    00:00 +28°C° 0 mm 2 mps 755 mmHg 35%
    01:00 +28°C° 0 mm 2 mps 755 mmHg 37%
    02:00 +27°C° 0 mm 2 mps 755 mmHg 39%
    03:00 +26°C° 0 mm 2 mps 755 mmHg 41%
    04:00 +26°C° 0 mm 2 mps 755 mmHg 43%
    05:00 +26°C° 0 mm 1 mps 755 mmHg 45%
    06:00 +25°C° 0 mm 1 mps 756 mmHg 47%
    07:00 +26°C° 0.5 mm 2 mps 756 mmHg 47%
    08:00 +27°C° 0.5 mm 2 mps 757 mmHg 47%
    09:00 +28°C° 0.5 mm 3 mps 757 mmHg 46%
    10:00 +30°C° 0.1 mm 2 mps 757 mmHg 42%
    11:00 +31°C° 0.1 mm 2 mps 757 mmHg 37%
    12:00 +34°C° 0.1 mm 2 mps 757 mmHg 32%
    13:00 +35°C° 0 mm 2 mps 756 mmHg 29%
    14:00 +36°C° 0 mm 3 mps 755 mmHg 26%
    15:00 +37°C° 0 mm 3 mps 755 mmHg 23%
    16:00 +36°C° 0 mm 3 mps 754 mmHg 25%
    17:00 +34°C° 0 mm 2 mps 754 mmHg 28%
    18:00 +32°C° 0 mm 2 mps 754 mmHg 30%
    19:00 +31°C° 0 mm 2 mps 755 mmHg 32%
    20:00 +30°C° 0 mm 2 mps 755 mmHg 33%
    21:00 +30°C° 0 mm 2 mps 756 mmHg 35%
    22:00 +29°C° 0 mm 2 mps 756 mmHg 37%
    23:00 +28°C° 0 mm 2 mps 756 mmHg 39%

    Day after tomorrow, 27 February, Tuesday

    Time Temperature Precipitation Wind Pressure Humidity
    00:00 +27°C° 0 mm 2 mps 756 mmHg 41%
    01:00 +27°C° 0 mm 2 mps 756 mmHg 43%
    02:00 +26°C° 0 mm 1 mps 756 mmHg 45%
    03:00 +26°C° 0 mm 1 mps 755 mmHg 47%
    04:00 +25°C° 0 mm 1 mps 756 mmHg 49%
    05:00 +25°C° 0 mm 1 mps 756 mmHg 51%
    06:00 +25°C° 0 mm 1 mps 756 mmHg 53%
    07:00 +26°C° 0 mm 1 mps 757 mmHg 49%
    08:00 +28°C° 0 mm 1 mps 757 mmHg 44%
    09:00 +30°C° 0 mm 1 mps 758 mmHg 40%
    10:00 +31°C° 0 mm 2 mps 758 mmHg 35%
    11:00 +34°C° 0 mm 2 mps 757 mmHg 30%
    12:00 +36°C° 0 mm 2 mps 757 mmHg 24%
    13:00 +36°C° 0 mm 2 mps 756 mmHg 22%
    14:00 +37°C° 0 mm 3 mps 755 mmHg 19%
    15:00 +38°C° 0 mm 3 mps 754 mmHg 17%
    16:00 +36°C° 0 mm 3 mps 754 mmHg 18%
    17:00 +35°C° 0 mm 3 mps 753 mmHg 19%
    18:00 +32°C° 0 mm 2 mps 753 mmHg 21%
    19:00 +31°C° 0 mm 2 mps 754 mmHg 21%
    20:00 +30°C° 0 mm 2 mps 754 mmHg 22%
    21:00 +29°C° 0 mm 2 mps 755 mmHg 23%
    22:00 +28°C° 0 mm 2 mps 755 mmHg 25%
    23:00 +28°C° 0 mm 2 mps 755 mmHg 27%

    28 February, Wednesday

    Time Temperature Precipitation Wind Pressure Humidity
    00:00 +27°C° 0 mm 2 mps 755 mmHg 29%
    01:00 +26°C° 0 mm 2 mps 755 mmHg 33%
    02:00 +25°C° 0 mm 2 mps 755 mmHg 37%
    03:00 +25°C° 0 mm 1 mps 755 mmHg 40%
    04:00 +24°C° 0 mm 1 mps 755 mmHg 43%
    05:00 +24°C° 0 mm 1 mps 755 mmHg 45%
    06:00 +23°C° 0 mm 1 mps 755 mmHg 48%
    07:00 +25°C° 0 mm 1 mps 756 mmHg 45%
    08:00 +27°C° 0 mm 1 mps 756 mmHg 42%
    09:00 +29°C° 0 mm 2 mps 757 mmHg 39%
    10:00 +31°C° 0 mm 1 mps 757 mmHg 34%
    11:00 +33°C° 0 mm 1 mps 756 mmHg 28%
    12:00 +35°C° 0 mm 1 mps 756 mmHg 23%
    13:00 +36°C° 0 mm 1 mps 755 mmHg 21%
    14:00 +37°C° 0 mm 2 mps 754 mmHg 18%
    15:00 +38°C° 0 mm 3 mps 753 mmHg 16%
    16:00 +36°C° 0 mm 3 mps 753 mmHg 18%
    17:00 +35°C° 0 mm 2 mps 752 mmHg 20%
    18:00 +34°C° 0 mm 2 mps 752 mmHg 21%
    19:00 +31°C° 0 mm 2 mps 753 mmHg 22%
    20:00 +30°C° 0 mm 2 mps 753 mmHg 23%
    21:00 +29°C° 0 mm 1 mps 754 mmHg 24%
    22:00 +29°C° 0 mm 1 mps 754 mmHg 25%
    23:00 +28°C° 0 mm 1 mps 754 mmHg 26%

    1 March, Thursday

    Time Temperature Precipitation Wind Pressure Humidity
    00:00 +28°C° 0 mm 1 mps 754 mmHg 27%
    01:00 +27°C° 0 mm 1 mps 754 mmHg 31%
    02:00 +26°C° 0 mm 1 mps 754 mmHg 34%
    03:00 +25°C° 0 mm 1 mps 753 mmHg 37%
    04:00 +25°C° 0 mm 1 mps 754 mmHg 38%
    05:00 +24°C° 0 mm 1 mps 754 mmHg 39%
    06:00 +24°C° 0 mm 1 mps 754 mmHg 40%
    07:00 +26°C° 0 mm 1 mps 755 mmHg 37%
    08:00 +28°C° 0 mm 1 mps 755 mmHg 34%
    09:00 +30°C° 0 mm 1 mps 756 mmHg 31%
    10:00 +32°C° 0 mm 2 mps 756 mmHg 27%
    11:00 +34°C° 0 mm 2 mps 755 mmHg 24%
    12:00 +36°C° 0 mm 2 mps 755 mmHg 21%
    13:00 +37°C° 0 mm 2 mps 754 mmHg 20%
    14:00 +38°C° 0 mm 3 mps 753 mmHg 18%
    15:00 +38°C° 0 mm 4 mps 752 mmHg 16%
    16:00 +37°C° 0 mm 3 mps 752 mmHg 18%
    17:00 +35°C° 0 mm 3 mps 752 mmHg 21%
    18:00 +34°C° 0 mm 2 mps 752 mmHg 23%
    19:00 +32°C° 0 mm 2 mps 752 mmHg 24%
    20:00 +31°C° 0 mm 1 mps 753 mmHg 25%
    21:00 +30°C° 0 mm 1 mps 754 mmHg 26%
    22:00 +29°C° 0 mm 1 mps 754 mmHg 27%
    23:00 +28°C° 0 mm 2 mps 753 mmHg 28%

    2 March, Friday

    Time Temperature Precipitation Wind Pressure Humidity
    00:00 +28°C° 0 mm 2 mps 753 mmHg 30%
    01:00 +27°C° 0 mm 2 mps 753 mmHg 32%
    02:00 +26°C° 0 mm 1 mps 753 mmHg 34%
    03:00 +26°C° 0 mm 1 mps 753 mmHg 35%
    04:00 +25°C° 0 mm 1 mps 753 mmHg 37%
    05:00 +25°C° 0 mm 1 mps 753 mmHg 39%
    06:00 +22°C° 0 mm 0 mps 754 mmHg 40%
    07:00 +27°C° 0 mm 1 mps 754 mmHg 37%
    08:00 +29°C° 0 mm 1 mps 755 mmHg 33%
    09:00 +31°C° 0 mm 1 mps 756 mmHg 30%
    10:00 +34°C° 0 mm 2 mps 755 mmHg 26%
    11:00 +35°C° 0 mm 2 mps 755 mmHg 23%
    12:00 +37°C° 0 mm 3 mps 754 mmHg 20%
    13:00 +38°C° 0 mm 4 mps 753 mmHg 18%
    14:00 +38°C° 0 mm 4 mps 752 mmHg 17%
    15:00 +40°C° 0 mm 5 mps 751 mmHg 16%
    16:00 +38°C° 0 mm 4 mps 751 mmHg 18%
    17:00 +36°C° 0 mm 3 mps 751 mmHg 20%
    18:00 +35°C° 0 mm 3 mps 751 mmHg 21%
    19:00 +32°C° 0 mm 2 mps 751 mmHg 22%
    20:00 +31°C° 0 mm 2 mps 752 mmHg 23%
    21:00 +30°C° 0 mm 2 mps 753 mmHg 24%
    22:00 +30°C° 0 mm 2 mps 752 mmHg 25%
    23:00 +29°C° 0 mm 2 mps 752 mmHg 25%
    Show more